Location: Piolenc
(44.1794°N, 4.7641°E)
Time: 04:33:59
(UTC+00:00)

Cosmos 2278 Rocket - Pass Details

Date: 27 January 2021
Orbit: 840 x 847 km, 71.0° (Epoch: 27 February)

Event Time Altitude Azimuth Distance (km) Brightness Sun altitude
Exits shadow 03:36:49 21° 131° (SE) 1,831 4.2 -37.1°
Drops below altitude 10° 03:38:36 10° 138° (SE) 2,462 4.9 -36.8°
Sets 03:41:06 0° 143° (SE) 3,392 5.7 -36.3°
